Regional Weather Roundup
Issued by NWS

Home | Current Version | Previous Version | Graphics & Text | Print | Product List | Glossary On
Versions: 1 2 3 4 5 6 7 8 9 10 11 12 13 14 15 16 17 18 19 20 21 22 23 24 25 26 27 28
000
ASUS45 KBOU 300307
RWRCO

WEATHER ROUNDUP FOR COLORADO
NATIONAL WEATHER SERVICE DENVER/BOULDER CO
900 PM MDT MON MAY 29 2017

NOTE: "FAIR" INDICATES FEW OR NO CLOUDS BELOW 12000 FEET WITH NO
SIGNIFICANT WEATHER AND/OR OBSTRUCTIONS TO VISIBILITY.

COZ001>005-013-030-031-300400-
...NORTHWEST COLORADO...

CITY           SKY/WX    TMP DP  RH WIND       PRES   REMARKS
CRAIG          FAIR      52  40  63 MISG      30.20R
HAYDEN         FAIR      55  36  47 E6        30.22R
MEEKER         FAIR      58  36  43 SE5       30.19R
RABBIT EARS PA FAIR      41  32  70 NE5       30.43R
STEAMBOAT SPGS FAIR      55  37  51 N3        30.24S
WALDEN           N/A     46  36  66 SE5       30.34R
$$

COZ006>008-011-300400-
...WEST CENTRAL VALLEYS...

CITY           SKY/WX    TMP DP  RH WIND       PRES   REMARKS
GRAND JUNCTION FAIR      71  24  17 NE8       30.03S
MONTROSE       FAIR      67  27  22 W3        30.11R
EAGLE          FAIR      62  34  35 CALM      30.22R
RIFLE          FAIR      67  25  20 NW6       30.12R
DELTA          FAIR      73  24  15 N9        30.06S
NUCLA          FAIR      68  23  18 NE6       30.14R
$$

COZ017>023-064>068-300400-
...SOUTHWEST COLORADO...

CITY           SKY/WX    TMP DP  RH WIND       PRES   REMARKS
DURANGO        FAIR      63  24  22 CALM      30.14R
CORTEZ         FAIR      58  37  45 SE5       30.10R
PAGOSA SPRINGS MOCLDY    58  22  24 CALM      30.22R
TELLURIDE      FAIR      55  25  32 E5        30.33S
WOLF CREEK PAS CLOUDY    37  25  60 N5        30.53S
$$

COZ009-010-012-014-032>034-037-058>063-300400-
...CENTRAL COLORADO...

CITY           SKY/WX    TMP DP  RH WIND       PRES   REMARKS
ASPEN          FAIR      50  34  54 SW3       30.24R
BUENA VISTA    MOCLDY    54  35  48 NE5       30.31R
COPPER MTN     FAIR      41  27  56 NW3       30.50R
BERTHOUD PASS  MOCLDY    30  19  64 NW8       30.51R WCI  23
COTTONWOOD PAS MOCLDY    48  34  57 CALM      30.41R
GUNNISON       FAIR      55  25  31 N9        30.23R
KREMMLING      FAIR      55  37  50 SW3       30.29R
LEADVILLE      FAIR      44  26  49 CALM      30.37R
MONARCH PASS   FAIR      37  32  81 NE30      30.55F
SALIDA         FAIR      58  36  43 E10G23    30.34R
SUNLIGHT       FAIR      39  25  56 N5        30.46R
WILKERSON PASS MOCLDY    34  32  93 E8        30.50R WCI  27
$$

COZ069>075-300400-
...SAN LUIS VALLEY/SANGRE DE CRISTO MOUNTAINS...

CITY           SKY/WX    TMP DP  RH WIND       PRES   REMARKS
ALAMOSA        MOCLDY    59  37  44 E17G31    30.21R
DEL NORTE      MOCLDY    60  24  25 SW9       30.24R
LA VETA PASS   CLOUDY    39  34  81 NE20G25   30.53R
SAGUACHE       MOCLDY    59  28  31 N5        30.24R
$$

COZ035-036-038>040-300400-
...NORTHERN COLORADO FRONT RANGE...

CITY           SKY/WX    TMP DP  RH WIND       PRES   REMARKS
DENVER INTL AP FAIR      52  45  77 S9        30.22R
DMNS CITY PARK   N/A     57  44  60 E9        30.21R
AURORA         NOT AVBL
FRONT RANGE AP PTCLDY    54  48  82 S9        30.23R
ERIE MUNI ARPT FAIR      58  45  60 CALM      30.20S
BOULDER MUN AP FAIR      59  41  51 CALM      30.20S
CENTENNIAL     FAIR      55  44  66 S5        30.23S
BROOMFIELD     PTCLDY    55  39  54 VRB3      30.22S
FORT COLLINS   FAIR      58  44  60 CALM      30.21R
LONGMONT       FAIR      60  44  57 NW3       30.21S
$$

COZ041-046-047-076>085-087-088-300400-
...PIKES PEAK/PALMER DIVIDE AND SOUTHERN FOOTHILLS...

CITY           SKY/WX    TMP DP  RH WIND       PRES   REMARKS
COLO. SPRINGS  MOCLDY    57  44  62 W5        30.28R
A. F. ACADEMY  CLOUDY    51  47  88 CALM      30.28R
SCHRIEVER AFB  MOCLDY    53  44  74 N7        30.27R
CHEYENNE MTN   FAIR      53  38  55 NW13      30.25R
ELLICOTT       CLOUDY   N/A N/A N/A E10       30.25S
FALCON         CLOUDY    51  44  78 W7        30.30S
FORT CARSON    NOT AVBL
LIMON          FAIR      46  45  96 N3        30.24R
MONUMENT HILL  FAIR      46  41  81 SW5       30.30F
CANON CITY     NOT AVBL
WALSENBURG     CLOUDY    55  50  82 N9        30.24R
TRINIDAD       LGT RAIN  56  47  71 MISG      30.26R
$$

COZ042>045-048>051-090-091-300400-
...NORTHEAST COLORADO...

CITY           SKY/WX    TMP DP  RH WIND       PRES   REMARKS
GREELEY ARPT   FAIR      60  47  61 S6        30.20R
AKRON          FAIR      54  45  71 SW8       30.20R
BURLINGTON     FAIR      54  51  90 SE3       30.18F
WRAY           CLOUDY    61  46  59 SW12      30.17R
YUMA           FAIR      54  37  54 SW7       30.19R
STERLING       NOT AVBL
HOLYOKE        NOT AVBL
FORT MORGAN    FAIR      55  45  69 CALM      30.20R
$$

COZ086-089-092>099-300400-
...SOUTHEAST COLORADO...

CITY           SKY/WX    TMP DP  RH WIND       PRES   REMARKS
PUEBLO         CLOUDY    62  44  51 NE15      30.19R
LA JUNTA       FAIR      63  47  55 NE15      30.17R
LAMAR          MOCLDY    59  54  83 NE9       30.18R
SPRINGFIELD      N/A     54  48  80 S6        30.21R
$$




USA.gov is the U.S. government's official web portal to all federal, state and local government web resources and services.